Concordia, KS

7:38 AM CDT on October 16, 2019 (GMT -0500)
Blosser Municipal

Weather History for KCNK - August, 2019

Change the Weather History Date:

Tuesday, August 13, 2019

  Actual Average Record
Temperature  
Mean Temperature 80 °F 78 °F  
Max Temperature 88 °F 89 °F 114 °F (1936)
Min Temperature 72 °F 66 °F 51 °F (1992)
Degree Days  
Heating Degree Days 0 0  
Month to date heating degree days 0 0  
Since 1 June heating degree days 0 13  
Since 1 July heating degree days 0 0  
Cooling Degree Days 15 13  
Month to date cooling degree days 179 174  
Year to date cooling degree days 1084 964  
Since 1 June cooling degree days 984 875  
Growing Degree Days 30 (Base 50)    
Moisture  
Dew Point 69 °F    
Average Humidity 72    
Maximum Humidity 100    
Minimum Humidity 43    
Precipitation  
Precipitation 0.00 in 0.10 in 2.35 in (1975)
Month to date precipitation 4.18 1.39  
Year to date precipitation 26.41 19.35  
Snow  
Snow 0.00 in 0.00 in 0.00 in ()
Month to date snowfall 0.0 0.0  
Year to date snowfall 32.3 13.7  
Since 1 July snowfall 0.0 0.0  
Snow Depth 0.00 in    
Sea Level Pressure  
Sea Level Pressure 29.99 in    
Wind  
Wind Speed 6 mph (NNE)    
Max Wind Speed 14 mph    
Max Gust Speed 19 mph    
Visibility 10 miles    
Events      
T = Trace of Precipitation, MM = Missing Value Source: NWS Daily Summary

Daily Weather History Graph

Daily Weather History Graph

Search for Another Location

Airport or City:

Astronomy

Aug. 13, 2019 Rise Set
Actual Time 6:40 AM CDT 8:29 PM CDT
Civil Twilight 6:12 AM CDT 8:58 PM CDT
Nautical Twilight 5:36 AM CDT 9:33 PM CDT
Astronomical Twilight 4:59 AM CDT 10:10 PM CDT
Moon 7:44 PM CDT (8/13) 4:44 AM CDT (8/13)
Length of Visible Light 14h 46m
Length of Day
13h 48m
Waxing Gibbous, 97% of the Moon is Illuminated
Aug 13
Waxing Gibbous
Aug 15
Full
Aug 23
Last Quarter
Aug 30
New
Sep 5
First Quarter

Hourly Weather History & Observations

Time (CDT) Temp. Heat Index Dew Point Humidity Pressure Visibility Wind Dir Wind Speed Gust Speed Precip Events Conditions
12:55 AM 75.9 °F - 73.9 °F 94% 29.89 in 10.0 mi WNW 4.6 mph - N/A   Clear
1:55 AM 75.0 °F - 73.0 °F 94% 29.88 in 10.0 mi West 5.8 mph - N/A   Clear
2:55 AM 73.9 °F - 73.0 °F 97% 29.90 in 10.0 mi West 4.6 mph - N/A   Clear
3:55 AM 73.9 °F - 72.0 °F 93% 29.93 in 10.0 mi NW 4.6 mph - N/A   Overcast
4:55 AM 73.9 °F - 71.1 °F 91% 29.94 in 10.0 mi NW 4.6 mph - N/A   Mostly Cloudy
5:55 AM 73.0 °F - 70.0 °F 90% 29.96 in 10.0 mi NNW 5.8 mph - N/A   Mostly Cloudy
6:55 AM 72.0 °F - 69.1 °F 91% 29.98 in 10.0 mi North 6.9 mph - N/A   Clear
7:55 AM 73.9 °F - 70.0 °F 87% 29.98 in 10.0 mi NNE 10.4 mph - N/A   Clear
8:55 AM 77.0 °F - 71.1 °F 82% 29.97 in 10.0 mi NNE 11.5 mph - N/A   Clear
9:55 AM 80.1 °F 83.8 °F 72.0 °F 76% 29.98 in 10.0 mi NNE 11.5 mph - N/A   Clear
10:55 AM 82.9 °F 89.4 °F 73.9 °F 74% 30.01 in 10.0 mi Variable 5.8 mph - N/A   Scattered Clouds
11:05 AM 82.9 °F 89.4 °F 73.9 °F 74% 30.06 in 10.0 mi ENE 8.1 mph - N/A   Mostly Cloudy
11:26 AM 84.0 °F 90.2 °F 73.0 °F 69% 30.07 in 10.0 mi NE 6.9 mph - N/A   Scattered Clouds
11:55 AM 84.9 °F 91.4 °F 73.0 °F 67% 30.02 in 10.0 mi NNE 9.2 mph - N/A   Scattered Clouds
12:25 PM 84.9 °F 90.7 °F 72.0 °F 65% 30.07 in 10.0 mi North 8.1 mph - N/A   Mostly Cloudy
12:36 PM 86.0 °F 91.5 °F 71.1 °F 61% 30.08 in 10.0 mi NNE 10.4 mph - N/A   Scattered Clouds
12:55 PM 86.0 °F 90.7 °F 70.0 °F 59% 30.03 in 10.0 mi NNE 9.2 mph - N/A   Clear
1:55 PM 86.0 °F 88.2 °F 66.0 °F 51% 30.02 in 10.0 mi NE 9.2 mph - N/A   Clear
2:55 PM 87.1 °F 88.9 °F 64.9 °F 48% 30.00 in 10.0 mi NE 12.7 mph 18.4 mph N/A   Clear
3:55 PM 87.1 °F 87.5 °F 62.1 °F 43% 29.99 in 10.0 mi NE 9.2 mph - N/A   Clear
4:55 PM 87.1 °F 87.5 °F 62.1 °F 43% 29.98 in 10.0 mi NE 5.8 mph - N/A   Clear
5:55 PM 86.0 °F 86.8 °F 63.0 °F 46% 29.99 in 10.0 mi ENE 4.6 mph - N/A   Clear
6:55 PM 84.0 °F 86.5 °F 66.9 °F 56% 30.00 in 10.0 mi Calm Calm - N/A   Clear
7:55 PM 80.1 °F 82.3 °F 66.9 °F 64% 30.01 in 10.0 mi WNW 3.5 mph - N/A   Clear
8:55 PM 78.1 °F - 66.9 °F 68% 30.01 in 10.0 mi Calm Calm - N/A   Clear
9:55 PM 75.0 °F - 69.1 °F 82% 30.01 in 10.0 mi Calm Calm - N/A   Clear
10:55 PM 75.0 °F - 66.0 °F 73% 30.03 in 10.0 mi South 4.6 mph - N/A   Clear
11:55 PM 73.9 °F - 66.9 °F 79% 30.01 in 10.0 mi NE 5.8 mph - N/A   Clear